EW7114 Weather Reports


time (UTC)temp
C
wind
direction
speed
KPH
gust
KPH
rain 1hr
cm
rain 24hr
cm
rain mn
cm
humidity
%
barometer
mb
20260509201025 20 41 14.5 24.1 0.00 0.00 0.00 30 1010.1
20260509200520 20 66 12.9 25.7 0.00 0.00 0.00 31 1010.2
20260509200019 20 17 16.1 25.7 0.00 0.00 0.00 32 1010.2
20260509195520 20 355 14.5 22.5 0.00 0.00 0.00 31 1010.2
20260509195019 20 32 8.0 30.6 0.00 0.00 0.00 32 1010.3
20260509194519 20 350 11.3 30.6 0.00 0.00 0.00 31 1010.4
20260509194019 21 89 9.7 25.7 0.00 0.00 0.00 31 1010.4
20260509193520 20 32 11.3 22.5 0.00 0.00 0.00 31 1010.4
20260509193018 20 55 11.3 20.9 0.00 0.00 0.00 31 1010.6
20260509192517 20 345 8.0 27.4 0.00 0.00 0.00 31 1010.6
20260509192017 20 340 17.7 27.4 0.00 0.00 0.00 29 1010.6
20260509191520 20 45 12.9 27.4 0.00 0.00 0.00 31 1010.4
20260509191016 20 45 11.3 24.1 0.00 0.00 0.00 30 1010.5
20260509190514 20 32 14.5 24.1 0.00 0.00 0.00 30 1010.6
20260509190017 20 45 14.5 24.1 0.00 0.00 0.00 28 1010.7
20260509185512 20 51 12.9 25.7 0.00 0.00 0.00 30 1010.7
20260509185012 20 37 14.5 25.7 0.00 0.00 0.00 28 1010.7
20260509184512 19 39 14.5 25.7 0.00 0.00 0.00 29 1010.8
20260509184012 19 22 16.1 29.0 0.00 0.00 0.00 29 1010.9
20260509183510 19 345 19.3 29.0 0.00 0.00 0.00 28 1010.9
20260509183010 19 359 11.3 24.1 0.00 0.00 0.00 29 1010.9
20260509182512 20 29 14.5 24.1 0.00 0.00 0.00 28 1010.9
20260509182010 19 355 12.9 25.7 0.00 0.00 0.00 29 1010.9
20260509181510 20 33 16.1 27.4 0.00 0.00 0.00 27 1010.9
20260509181010 20 22 14.5 25.7 0.00 0.00 0.00 29 1010.8
20260509180509 19 20 9.7 20.9 0.00 0.00 0.00 29 1010.9
20260509180009 18 2 11.3 20.9 0.00 0.00 0.00 29 1011.0
20260509175508 18 355 14.5 25.7 0.00 0.00 0.00 28 1011.0
20260509175007 18 1 14.5 25.7 0.00 0.00 0.00 27 1011.0
20260509174507 19 16 16.1 30.6 0.00 0.00 0.00 26 1011.0
20260509174006 19 51 12.9 27.4 0.00 0.00 0.00 28 1011.1
20260509173504 19 8 11.3 27.4 0.00 0.00 0.00 29 1011.1
20260509173004 18 324 11.3 27.4 0.00 0.00 0.00 27 1011.2
20260509172504 18 5 14.5 24.1 0.00 0.00 0.00 27 1011.1
20260509172003 18 350 17.7 24.1 0.00 0.00 0.00 29 1011.1
20260509171503 18 6 11.3 24.1 0.00 0.00 0.00 28 1011.1
20260509171003 18 359 14.5 27.4 0.00 0.00 0.00 29 1011.1
20260509170501 18 355 17.7 27.4 0.00 0.00 0.00 30 1011.1
20260509170101 18 11 14.5 29.0 0.00 0.00 0.00 30 1011.0
20260509165559 18 17 16.1 27.4 0.00 0.00 0.00 30 1011.0
20260509165058 18 5 14.5 24.1 0.00 0.00 0.00 31 1011.0
20260509164602 17 16 12.9 24.1 0.00 0.00 0.00 31 1011.0
20260509164101 17 5 14.5 24.1 0.00 0.00 0.00 30 1011.0
20260509163556 17 359 16.1 25.7 0.00 0.00 0.00 29 1011.0
20260509163057 17 28 16.1 25.7 0.00 0.00 0.00 31 1010.9
20260509162557 17 13 12.9 22.5 0.00 0.00 0.00 30 1011.0
20260509162057 18 336 14.5 22.5 0.00 0.00 0.00 32 1011.0
20260509161557 17 359 14.5 22.5 0.00 0.00 0.00 30 1011.1
20260509161059 17 355 12.9 22.5 0.00 0.00 0.00 32 1011.1
20260509160557 17 299 14.5 22.5 0.00 0.00 0.00 32 1011.1
20260509160055 17 3 11.3 22.5 0.00 0.00 0.00 33 1011.1
20260509155555 17 335 11.3 20.9 0.00 0.00 0.00 33 1011.1
20260509155054 17 3 14.5 25.7 0.00 0.00 0.00 34 1011.1
20260509154555 17 319 14.5 25.7 0.00 0.00 0.00 34 1011.2
20260509154051 17 334 12.9 24.1 0.00 0.00 0.00 34 1011.0
20260509153551 17 13 16.1 25.7 0.00 0.00 0.00 33 1011.1
20260509153100 17 25 11.3 24.1 0.00 0.00 0.00 36 1011.1
20260509152549 17 345 16.1 22.5 0.00 0.00 0.00 34 1011.0
20260509152050 17 345 12.9 22.5 0.00 0.00 0.00 35 1011.0
20260509151552 17 16 12.9 22.5 0.00 0.00 0.00 37 1011.0
20260509151047 17 355 14.5 24.1 0.00 0.00 0.00 39 1011.0
20260509150547 16 359 12.9 22.5 0.00 0.00 0.00 39 1011.0
20260509150048 16 324 12.9 22.5 0.00 0.00 0.00 39 1010.9
20260509145547 16 350 12.9 22.5 0.00 0.00 0.00 39 1011.0
20260509145048 16 339 12.9 20.9 0.00 0.00 0.00 38 1010.9
20260509144546 16 355 11.3 20.9 0.00 0.00 0.00 37 1010.9
20260509144044 16 345 11.3 20.9 0.00 0.00 0.00 37 1010.9
20260509143547 16 355 11.3 22.5 0.00 0.00 0.00 37 1010.8
20260509143043 16 334 14.5 22.5 0.00 0.00 0.00 37 1010.8
20260509142542 16 345 12.9 16.1 0.00 0.00 0.00 37 1010.9
20260509142040 16 64 4.8 9.7 0.00 0.00 0.00 41 1010.9
20260509141538 15 17 3.2 9.7 0.00 0.00 0.00 41 1010.9
20260509141036 15 58 4.8 9.7 0.00 0.00 0.00 41 1011.0
20260509140536 15 36 4.8 11.3 0.00 0.00 0.00 40 1010.8
20260509140043 15 41 4.8 9.7 0.00 0.00 0.00 41 1010.9
20260509135534 14 24 6.4 9.7 0.00 0.00 0.00 40 1010.9
20260509135031 14 7 4.8 9.7 0.00 0.00 0.00 40 1010.8
20260509134536 14 355 4.8 9.7 0.00 0.00 0.00 40 1010.8
20260509134032 13 355 4.8 9.7 0.00 0.00 0.00 40 1010.8
20260509133531 13 355 4.8 9.7 0.00 0.00 0.00 40 1010.8
20260509133031 13 345 4.8 12.9 0.00 0.00 0.00 40 1010.7
20260509132530 13 345 6.4 12.9 0.00 0.00 0.00 41 1010.7
20260509132035 13 315 8.0 12.9 0.00 0.00 0.00 42 1010.6
20260509131533 12 350 6.4 12.9 0.00 0.00 0.00 43 1010.6
20260509131029 11 2 4.8 12.9 0.00 0.00 0.00 46 1010.5
20260509130531 11 331 4.8 9.7 0.00 0.00 0.00 48 1010.6
20260509130028 10 320 4.8 12.9 0.00 0.00 0.00 49 1010.5
20260509125531 10 334 4.8 12.9 0.00 0.00 0.00 49 1010.4
20260509125026 9 301 6.4 12.9 0.00 0.00 0.00 50 1010.3
20260509124526 9 359 3.2 8.0 0.00 0.00 0.00 50 1010.4
20260509124026 9 28 4.8 12.9 0.00 0.00 0.00 49 1010.4
20260509123525 10 327 8.0 14.5 0.00 0.00 0.00 49 1010.4
20260509123025 9 308 6.4 14.5 0.00 0.00 0.00 51 1010.3
20260509122523 8 297 8.0 12.9 0.00 0.00 0.00 54 1010.3
20260509122023 7 326 6.4 12.9 0.00 0.00 0.00 53 1010.2
20260509121522 8 315 6.4 12.9 0.00 0.00 0.00 53 1010.2
20260509121020 8 317 4.8 9.7 0.00 0.00 0.00 53 1010.2
20260509120519 9 328 4.8 12.9 0.00 0.00 0.00 50 1010.2
20260509120019 10 300 6.4 12.9 0.00 0.00 0.00 49 1010.1
20260509115521 10 308 4.8 8.0 0.00 0.00 0.00 52 1010.2
20260509115017 10 299 3.2 8.0 0.00 0.00 0.00 52 1010.2
20260509114517 10 359 3.2 8.0 0.00 0.00 0.00 53 1010.2
20260509114017 10 311 3.2 8.0 0.00 0.00 0.00 53 1010.1
20260509113516 10 359 3.2 8.0 0.00 0.00 0.00 54 1010.1
20260509113016 9 359 4.8 9.7 0.00 0.00 0.00 53 1010.1
20260509112514 9 341 3.2 12.9 0.00 0.00 0.00 52 1010.1
20260509112016 10 324 4.8 9.7 0.00 0.00 0.00 52 1010.0
20260509111514 10 295 6.4 9.7 0.00 0.00 0.00 53 1009.9
20260509111013 10 299 4.8 8.0 0.00 0.00 0.00 54 1009.9
20260509110514 11 350 4.8 9.7 0.00 0.00 0.00 53 1009.9
20260509110013 10 350 6.4 9.7 0.00 0.00 0.00 53 1009.9
20260509105513 10 359 6.4 9.7 0.00 0.00 0.00 53 1009.9
20260509105012 10 345 4.8 9.7 0.00 0.00 0.00 52 1009.8
20260509104513 10 3 6.4 9.7 0.00 0.00 0.00 52 1009.9
20260509104012 10 32 4.8 9.7 0.00 0.00 0.00 52 1009.8
20260509103511 10 328 3.2 9.7 0.00 0.00 0.00 51 1009.9
20260509103011 10 333 4.8 14.5 0.00 0.00 0.00 50 1009.9
20260509102511 10 359 8.0 14.5 0.00 0.00 0.00 49 1009.8
20260509102010 11 322 8.0 14.5 0.00 0.00 0.00 49 1010.0
20260509101510 11 320 6.4 14.5 0.00 0.00 0.00 48 1010.0
20260509101014 11 319 9.7 16.1 0.00 0.00 0.00 47 1010.0
20260509100511 11 325 11.3 16.1 0.00 0.00 0.00 47 1010.0
20260509100009 11 319 9.7 16.1 0.00 0.00 0.00 47 1010.0
20260509095509 11 319 6.4 12.9 0.00 0.00 0.00 48 1010.0
20260509095011 11 336 8.0 16.1 0.00 0.00 0.00 47 1010.0
20260509094510 12 328 8.0 16.1 0.00 0.00 0.00 47 1010.0
20260509094008 12 326 8.0 14.5 0.00 0.00 0.00 46 1009.9
20260509093509 12 327 8.0 14.5 0.00 0.00 0.00 46 1009.8
20260509093005 12 345 6.4 14.5 0.00 0.00 0.00 46 1009.8
20260509092504 12 322 8.0 12.9 0.00 0.00 0.00 47 1009.8
20260509092008 12 340 6.4 14.5 0.00 0.00 0.00 47 1009.8
20260509091504 12 332 6.4 14.5 0.00 0.00 0.00 47 1009.7
20260509091004 12 315 6.4 14.5 0.00 0.00 0.00 46 1009.7
20260509090502 12 332 4.8 14.5 0.00 0.00 0.00 46 1009.6
20260509090003 12 333 6.4 14.5 0.00 0.00 0.00 47 1009.5
20260509085502 12 313 8.0 14.5 0.00 0.00 0.00 48 1009.6
20260509085002 12 313 8.0 14.5 0.00 0.00 0.00 48 1009.5
20260509084502 12 324 8.0 12.9 0.00 0.00 0.00 50 1009.4
20260509084101 11 330 3.2 12.9 0.00 0.00 0.00 52 1009.4
20260509083559 11 323 4.8 14.5 0.00 0.00 0.00 51 1009.3
20260509083059 11 311 8.0 12.9 0.00 0.00 0.00 52 1009.4
20260509082558 11 319 6.4 12.9 0.00 0.00 0.00 53 1009.3
20260509082101 11 359 3.2 9.7 0.00 0.00 0.00 53 1009.2
20260509081558 11 321 4.8 8.0 0.00 0.00 0.00 53 1009.2
20260509081058 11 350 3.2 9.7 0.00 0.00 0.00 52 1009.2
20260509080601 11 312 3.2 12.9 0.00 0.00 0.00 52 1009.2
20260509080157 11 359 4.8 12.9 0.00 0.00 0.00 52 1009.2
20260509075559 11 350 1.6 9.7 0.00 0.00 0.00 51 1009.2
20260509075055 12 345 3.2 9.7 0.00 0.00 0.00 50 1009.2
20260509074556 12 332 3.2 8.0 0.00 0.00 0.00 50 1009.2
20260509074058 12 332 0.0 12.9 0.00 0.00 0.00 48 1009.2
20260509073553 13 22 1.6 12.9 0.00 0.00 0.00 48 1009.2
20260509073129 13 305 6.4 12.9 0.00 0.00 0.00 46 1009.2
20260509072557 13 303 6.4 16.1 0.00 0.00 0.00 45 1009.2
20260509072053 14 307 8.0 16.1 0.00 0.00 0.00 45 1009.0
20260509071552 14 298 8.0 16.1 0.00 0.00 0.00 44 1008.9
20260509071051 14 326 9.7 16.1 0.00 0.00 0.00 45 1008.9
20260509070552 14 301 6.4 16.1 0.00 0.00 0.00 44 1008.9
20260509070054 13 319 11.3 16.1 0.00 0.00 0.00 47 1008.9
20260509065547 13 308 6.4 14.5 0.00 0.00 0.00 49 1008.7
20260509065047 12 323 4.8 9.7 0.00 0.00 0.00 51 1008.8
20260509064547 12 345 1.6 8.0 0.00 0.00 0.00 50 1008.6
20260509064051 13 315 0.0 6.4 0.00 0.00 0.00 49 1008.5
20260509063545 13 290 1.6 9.7 0.00 0.00 0.00 50 1008.5
20260509063044 12 290 4.8 9.7 0.00 0.00 0.00 51 1008.6
20260509062543 11 285 3.2 6.4 0.00 0.00 0.00 52 1008.6
20260509062043 11 319 1.6 8.0 0.00 0.00 0.00 52 1008.7
20260509061540 10 323 4.8 8.0 0.00 0.00 0.00 53 1008.8
20260509061038 8 255 0.0 3.2 0.00 0.00 0.00 52 1008.7
20260509060537 8 255 0.0 6.4 0.00 0.00 0.00 53 1008.8
20260509060046 8 255 1.6 6.4 0.00 0.00 0.00 53 1008.7
20260509055536 9 255 3.2 8.0 0.00 0.00 0.00 53 1008.9
20260509055036 9 350 4.8 8.0 0.00 0.00 0.00 53 1008.9
20260509054533 10 33 0.0 3.2 0.00 0.00 0.00 53 1008.4
20260509054031 10 33 1.6 4.8 0.00 0.00 0.00 53 1008.2
20260509053529 10 33 1.6 4.8 0.00 0.00 0.00 53 1008.3
20260509053032 10 330 0.0 0.0 0.00 0.00 0.00 52 1008.3
20260509052526 10 330 0.0 3.2 0.00 0.00 0.00 52 1008.3
20260509052025 9 330 1.6 4.8 0.00 0.00 0.00 52 1008.3
20260509051523 9 330 0.0 4.8 0.00 0.00 0.00 51 1008.2
20260509051022 9 283 0.0 3.2 0.00 0.00 0.00 49 1008.3
20260509050521 9 282 0.0 4.8 0.00 0.00 0.00 52 1008.3
20260509050019 9 282 0.0 6.4 0.00 0.00 0.00 52 1008.3
20260509045518 10 303 3.2 6.4 0.00 0.00 0.00 53 1008.2
20260509045016 10 172 1.6 4.8 0.00 0.00 0.00 53 1008.1
20260509044518 9 172 1.6 8.0 0.00 0.00 0.00 53 1008.2
20260509044014 10 173 3.2 8.0 0.00 0.00 0.00 53 1008.1
20260509043512 9 174 4.8 8.0 0.00 0.00 0.00 53 1008.1
20260509043017 10 179 3.2 4.8 0.00 0.00 0.00 52 1008.1
20260509042509 10 183 3.2 8.0 0.00 0.00 0.00 52 1008.0
20260509042008 11 182 4.8 8.0 0.00 0.00 0.00 50 1007.8
20260509041506 11 191 4.8 6.4 0.00 0.00 0.00 50 1007.8
20260509041005 11 124 0.0 4.8 0.00 0.00 0.00 51 1007.7
20260509040503 12 89 1.6 4.8 0.00 0.00 0.00 49 1007.7
20260509040002 12 89 1.6 3.2 0.00 0.00 0.00 49 1007.6
20260509035601 12 89 1.6 3.2 0.00 0.00 0.00 49 1007.5
20260509035100 12 89 1.6 3.2 0.00 0.00 0.00 49 1007.6
20260509034601 12 89 0.0 0.0 0.00 0.00 0.00 48 1007.5
20260509034056 12 89 0.0 0.0 0.00 0.00 0.00 49 1007.4
20260509033556 12 89 0.0 1.6 0.00 0.00 0.00 49 1007.3
20260509033053 12 89 0.0 3.2 0.00 0.00 0.00 47 1007.3
20260509032551 13 89 1.6 6.4 0.00 0.00 0.00 46 1007.2
20260509032051 14 83 1.6 6.4 0.00 0.00 0.00 46 1007.1
20260509031550 14 299 0.0 0.0 0.00 0.00 0.00 45 1007.1
20260509031050 15 299 0.0 0.0 0.00 0.00 0.00 44 1007.1
20260509030549 15 299 0.0 0.0 0.00 0.00 0.00 43 1007.1
20260509030048 15 299 0.0 0.0 0.00 0.00 0.00 42 1007.0
20260509025548 15 299 0.0 0.0 0.00 0.00 0.00 42 1007.0
20260509025046 15 299 0.0 3.2 0.00 0.00 0.00 42 1007.0
20260509024547 15 299 0.0 4.8 0.00 0.00 0.00 41 1006.9
20260509024042 15 299 1.6 4.8 0.00 0.00 0.00 41 1006.8
20260509023539 16 299 1.6 4.8 0.00 0.00 0.00 41 1006.8
20260509023041 17 299 0.0 3.2 0.00 0.00 0.00 39 1006.8
20260509022537 18 299 1.6 3.2 0.00 0.00 0.00 37 1006.8
20260509022036 18 299 0.0 4.8 0.00 0.00 0.00 35 1006.7
20260509021538 20 299 1.6 6.4 0.00 0.00 0.00 31 1006.6
20260509021033 21 297 3.2 6.4 0.00 0.00 0.00 27 1006.7
20260509020532 22 345 0.0 1.6 0.00 0.00 0.00 25 1006.6
20260509020033 22 345 0.0 3.2 0.00 0.00 0.00 25 1006.6
20260509015529 22 345 0.0 4.8 0.00 0.00 0.00 24 1006.5
20260509015028 22 345 0.0 4.8 0.00 0.00 0.00 24 1006.6
20260509014527 22 345 0.0 11.3 0.00 0.00 0.00 24 1006.6
20260509014026 23 1 4.8 11.3 0.00 0.00 0.00 24 1006.6
20260509013524 23 284 0.0 6.4 0.00 0.00 0.00 23 1006.6
20260509013023 23 284 3.2 9.7 0.00 0.00 0.00 25 1006.6
20260509012521 23 288 3.2 12.9 0.00 0.00 0.00 24 1006.7
20260509012020 23 341 3.2 17.7 0.00 0.00 0.00 24 1006.7
20260509011519 23 323 9.7 19.3 0.00 0.00 0.00 23 1006.7
20260509011017 23 311 3.2 14.5 0.00 0.00 0.00 23 1006.7
20260509010515 23 306 4.8 14.5 0.00 0.00 0.00 22 1006.8
20260509010019 24 277 6.4 19.3 0.00 0.00 0.00 23 1006.8
20260509005512 24 316 11.3 19.3 0.00 0.00 0.00 21 1006.8
20260509005013 25 261 0.0 4.8 0.00 0.00 0.00 22 1007.0
20260509004509 24 245 0.0 9.7 0.00 0.00 0.00 22 1007.0
20260509004008 24 216 3.2 14.5 0.00 0.00 0.00 23 1007.0
20260509003506 24 311 4.8 17.7 0.00 0.00 0.00 24 1007.1
20260509003014 24 268 6.4 17.7 0.00 0.00 0.00 24 1007.1
20260509002505 24 355 6.4 16.1 0.00 0.00 0.00 23 1007.2
20260509002003 24 304 1.6 16.1 0.00 0.00 0.00 22 1007.1
20260509001502 24 345 3.2 12.9 0.00 0.00 0.00 24 1007.1
20260509001059 23 303 3.2 16.1 0.00 0.00 0.00 23 1007.1
20260509000558 23 307 9.7 16.1 0.00 0.00 0.00 23 1007.1
20260509000058 23 289 4.8 17.7 0.00 0.00 0.00 23 1007.2
20260508235555 24 304 8.0 19.3 0.00 0.00 0.00 24 1007.3
20260508235054 24 5 8.0 17.7 0.00 0.00 0.00 24 1007.2
20260508234553 23 345 6.4 30.6 0.00 0.00 0.00 27 1007.3
20260508234052 23 345 16.1 33.8 0.00 0.00 0.00 25 1007.3
20260508233551 23 289 11.3 25.7 0.00 0.00 0.00 25 1007.3
20260508233049 24 305 16.1 25.7 0.00 0.00 0.00 24 1007.3
20260508232551 24 270 16.1 24.1 0.00 0.00 0.00 25 1007.0
20260508232046 24 284 8.0 19.3 0.00 0.00 0.00 23 1007.2
20260508231544 24 296 6.4 29.0 0.00 0.00 0.00 23 1007.2
20260508231043 24 350 9.7 29.0 0.00 0.00 0.00 25 1007.2
20260508230541 24 240 9.7 16.1 0.00 0.00 0.00 24 1007.2
20260508230040 24 328 6.4 27.4 0.00 0.00 0.00 24 1007.4
20260508225539 24 345 14.5 27.4 0.00 0.00 0.00 25 1007.4
20260508225038 24 355 6.4 24.1 0.00 0.00 0.00 26 1007.4
20260508224537 24 355 11.3 24.1 0.00 0.00 0.00 25 1007.4
20260508224035 24 28 12.9 27.4 0.00 0.00 0.00 25 1007.5
20260508223533 23 355 11.3 27.4 0.00 0.00 0.00 26 1007.6
20260508223040 23 324 9.7 22.5 0.00 0.00 0.00 27 1007.7
20260508222529 24 26 11.3 24.1 0.00 0.00 0.00 26 1007.8
20260508222028 23 350 14.5 24.1 0.00 0.00 0.00 25 1007.8
20260508221527 23 3 6.4 22.5 0.00 0.00 0.00 25 1007.9
20260508221029 23 53 6.4 19.3 0.00 0.00 0.00 26 1008.0
20260508220526 23 331 11.3 19.3 0.00 0.00 0.00 25 1008.0
20260508220024 23 345 4.8 20.9 0.00 0.00 0.00 28 1008.2
20260508215521 23 345 14.5 20.9 0.00 0.00 0.00 27 1008.2
20260508215020 23 359 9.7 24.1 0.00 0.00 0.00 28 1008.2
20260508214519 23 39 14.5 25.7 0.00 0.00 0.00 27 1008.2
20260508214017 23 39 16.1 25.7 0.00 0.00 0.00 28 1008.2
20260508213515 23 22 9.7 25.7 0.00 0.00 0.00 26 1008.2
20260508213016 23 45 12.9 35.4 0.00 0.00 0.00 26 1008.3
20260508212513 23 286 4.8 17.7 0.00 0.00 0.00 27 1008.3
20260508212016 23 267 11.3 19.3 0.00 0.00 0.00 27 1008.5
20260508211509 23 302 11.3 17.7 0.00 0.00 0.00 26 1008.4
20260508211008 23 269 3.2 20.9 0.00 0.00 0.00 26 1008.5
20260508210506 23 35 4.8 24.1 0.00 0.00 0.00 27 1008.6
20260508210005 23 355 16.1 24.1 0.00 0.00 0.00 27 1008.6
20260508205505 23 294 14.5 24.1 0.00 0.00 0.00 26 1008.7
20260508205003 23 276 14.5 22.5 0.00 0.00 0.00 27 1008.8
20260508204602 23 327 8.0 22.5 0.00 0.00 0.00 25 1008.8
20260508204503 23 314 6.4 24.1 0.00 0.00 0.00 25 1008.8
20260508204100 23 272 16.1 24.1 0.00 0.00 0.00 25 1008.8
20260508203557 23 328 14.5 24.1 0.00 0.00 0.00 27 1008.8
20260508203101 23 340 16.1 27.4 0.00 0.00 0.00 26 1009.0
20260508202554 23 276 12.9 27.4 0.00 0.00 0.00 26 1009.0
20260508202052 22 244 6.4 22.5 0.00 0.00 0.00 27 1009.0
20260508201553 23 276 14.5 20.9 0.00 0.00 0.00 28 1009.0